Time,TemperatureF,DewpointF,PressureIn,WindDirection,WindDirectionDegrees,WindSpeedMPH,WindSpeedGustMPH,Humidity,HourlyPrecipIn,Conditions,Clouds,dailyrainin,SoftwareType,DateUTC
2013-02-09 00:00:00,29.0,26.7,29.69,NNW,338,3.4,5.8,91,0.00,,,0.44,WUHU216HW,2013-02-09 05:00:00,
2013-02-09 00:05:00,28.8,26.6,29.69,NNW,338,1.8,6.3,91,0.00,,,0.00,WUHU216HW,2013-02-09 05:05:00,
2013-02-09 00:10:00,28.6,26.4,29.69,North,0,4.0,7.2,91,0.00,,,0.00,WUHU216HW,2013-02-09 05:10:00,
2013-02-09 00:15:00,28.4,26.2,29.69,North,0,3.4,7.4,91,0.00,,,0.00,WUHU216HW,2013-02-09 05:15:00,
2013-02-09 00:20:00,28.4,26.2,29.70,NNE,23,3.6,7.4,91,0.00,,,0.00,WUHU216HW,2013-02-09 05:20:00,
2013-02-09 00:25:00,28.3,26.0,29.70,North,0,4.0,5.6,91,0.00,,,0.00,WUHU216HW,2013-02-09 05:25:00,
2013-02-09 00:30:00,28.1,25.8,29.70,NNW,338,4.7,6.3,91,0.00,,,0.00,WUHU216HW,2013-02-09 05:30:00,
2013-02-09 00:35:00,28.1,25.8,29.70,North,0,3.4,6.7,91,0.00,,,0.00,WUHU216HW,2013-02-09 05:35:00,
2013-02-09 00:40:00,27.9,25.7,29.71,NNW,338,4.7,6.7,91,0.00,,,0.00,WUHU216HW,2013-02-09 05:40:00,
2013-02-09 00:45:00,27.7,25.8,29.71,NNW,338,2.0,12.3,92,0.00,,,0.00,WUHU216HW,2013-02-09 05:45:00,
2013-02-09 00:50:00,27.7,25.8,29.70,NNW,338,6.3,12.3,92,0.00,,,0.00,WUHU216HW,2013-02-09 05:50:00,
2013-02-09 00:55:00,27.7,25.8,29.71,NW,315,3.4,7.6,92,0.00,,,0.00,WUHU216HW,2013-02-09 05:55:00,
2013-02-09 01:00:00,27.5,25.6,29.71,NNE,23,3.8,7.6,92,0.00,,,0.00,WUHU216HW,2013-02-09 06:00:00,
2013-02-09 01:05:00,27.4,25.4,29.71,North,0,4.0,10.5,92,0.00,,,0.00,WUHU216HW,2013-02-09 06:05:00,
2013-02-09 01:10:00,27.4,25.4,29.71,North,0,2.7,10.5,92,0.00,,,0.00,WUHU216HW,2013-02-09 06:10:00,
2013-02-09 01:15:00,27.4,25.4,29.71,NNW,338,2.5,5.4,92,0.00,,,0.00,WUHU216HW,2013-02-09 06:15:00,
2013-02-09 01:20:00,27.4,25.4,29.71,NNE,23,1.1,7.4,92,0.00,,,0.00,WUHU216HW,2013-02-09 06:20:00,
2013-02-09 01:25:00,27.4,25.4,29.71,North,0,3.6,7.4,92,0.00,,,0.00,WUHU216HW,2013-02-09 06:25:00,
2013-02-09 01:30:00,27.4,25.4,29.71,NNE,23,7.6,7.6,92,0.00,,,0.00,WUHU216HW,2013-02-09 06:30:00,
2013-02-09 01:35:00,27.4,25.4,29.72,NNW,338,4.5,8.1,92,0.00,,,0.00,WUHU216HW,2013-02-09 06:35:00,
2013-02-09 01:40:00,27.4,25.4,29.72,SW,225,5.8,8.7,92,0.00,,,0.00,WUHU216HW,2013-02-09 06:40:00,
2013-02-09 01:45:00,27.4,25.6,29.72,NW,315,5.4,8.9,93,0.00,,,0.00,WUHU216HW,2013-02-09 06:45:00,
2013-02-09 01:50:00,27.4,25.6,29.72,North,0,4.7,9.2,93,0.00,,,0.00,WUHU216HW,2013-02-09 06:50:00,
2013-02-09 01:55:00,27.4,25.6,29.72,NW,315,2.9,9.2,93,0.00,,,0.00,WUHU216HW,2013-02-09 06:55:00,
2013-02-09 02:00:00,27.4,25.6,29.72,NW,315,2.5,7.4,93,0.00,,,0.00,WUHU216HW,2013-02-09 07:00:00,
2013-02-09 02:05:00,27.4,25.6,29.72,NW,315,2.2,7.4,93,0.00,,,0.00,WUHU216HW,2013-02-09 07:05:00,
2013-02-09 02:10:00,27.4,25.6,29.72,NNW,338,4.9,7.6,93,0.00,,,0.00,WUHU216HW,2013-02-09 07:10:00,
2013-02-09 02:15:00,27.4,25.6,29.72,North,0,2.2,8.1,93,0.00,,,0.00,WUHU216HW,2013-02-09 07:15:00,
2013-02-09 02:20:00,27.4,25.6,29.72,North,0,4.7,8.1,93,0.00,,,0.00,WUHU216HW,2013-02-09 07:20:00,
2013-02-09 02:25:00,27.5,25.7,29.72,North,0,7.2,7.2,93,0.00,,,0.00,WUHU216HW,2013-02-09 07:25:00,
2013-02-09 02:30:00,27.5,25.7,29.72,NW,315,3.4,7.4,93,0.00,,,0.00,WUHU216HW,2013-02-09 07:30:00,
2013-02-09 02:35:00,27.5,25.7,29.72,North,0,2.2,7.4,93,0.00,,,0.00,WUHU216HW,2013-02-09 07:35:00,
2013-02-09 02:40:00,27.5,25.7,29.72,WNW,293,1.3,6.7,93,0.00,,,0.00,WUHU216HW,2013-02-09 07:40:00,
2013-02-09 02:45:00,27.7,25.9,29.72,NNW,338,0.9,6.7,93,0.00,,,0.00,WUHU216HW,2013-02-09 07:45:00,
2013-02-09 02:50:00,27.7,25.9,29.72,NNW,338,1.1,4.3,93,0.00,,,0.00,WUHU216HW,2013-02-09 07:50:00,
2013-02-09 02:55:00,27.7,25.8,29.73,NW,315,3.1,5.1,92,0.00,,,0.00,WUHU216HW,2013-02-09 07:55:00,
2013-02-09 03:00:00,27.7,25.8,29.73,WSW,248,6.9,6.9,92,0.00,,,0.00,WUHU216HW,2013-02-09 08:00:00,
2013-02-09 03:05:00,27.7,25.8,29.73,North,0,4.0,7.2,92,0.00,,,0.00,WUHU216HW,2013-02-09 08:05:00,
2013-02-09 03:10:00,27.5,25.6,29.73,WNW,293,2.7,7.2,92,0.00,,,0.00,WUHU216HW,2013-02-09 08:10:00,
2013-02-09 03:15:00,27.5,25.6,29.73,NNW,338,7.4,7.4,92,0.00,,,0.00,WUHU216HW,2013-02-09 08:15:00,
2013-02-09 03:20:00,27.4,25.4,29.74,NNW,338,3.4,7.4,92,0.00,,,0.00,WUHU216HW,2013-02-09 08:20:00,
2013-02-09 03:25:00,27.2,25.2,29.74,WNW,293,2.9,9.8,92,0.00,,,0.00,WUHU216HW,2013-02-09 08:25:00,
2013-02-09 03:30:00,27.0,25.0,29.74,NNW,338,2.5,9.8,92,0.00,,,0.00,WUHU216HW,2013-02-09 08:30:00,
2013-02-09 03:35:00,27.0,24.8,29.74,NNW,338,2.0,9.8,91,0.00,,,0.00,WUHU216HW,2013-02-09 08:35:00,
2013-02-09 03:40:00,27.0,24.8,29.74,NNE,23,3.4,7.6,91,0.00,,,0.00,WUHU216HW,2013-02-09 08:40:00,
2013-02-09 03:45:00,27.0,24.8,29.74,North,0,4.0,6.7,91,0.00,,,0.00,WUHU216HW,2013-02-09 08:45:00,
2013-02-09 03:50:00,27.0,24.8,29.74,WSW,248,1.6,6.7,91,0.00,,,0.00,WUHU216HW,2013-02-09 08:50:00,
2013-02-09 03:55:00,27.0,24.8,29.74,NW,315,4.9,6.7,91,0.00,,,0.00,WUHU216HW,2013-02-09 08:55:00,
2013-02-09 04:00:00,26.8,24.6,29.75,WNW,293,1.3,6.9,91,0.00,,,0.00,WUHU216HW,2013-02-09 09:00:00,
2013-02-09 04:05:00,26.8,24.6,29.75,NNW,338,4.3,6.9,91,0.00,,,0.00,WUHU216HW,2013-02-09 09:05:00,
2013-02-09 04:10:00,26.6,24.4,29.75,NNW,338,5.8,5.8,91,0.00,,,0.00,WUHU216HW,2013-02-09 09:10:00,
2013-02-09 04:15:00,26.6,24.4,29.76,NW,315,3.6,7.2,91,0.00,,,0.00,WUHU216HW,2013-02-09 09:15:00,
2013-02-09 04:20:00,26.6,24.7,29.76,West,270,3.6,8.1,92,0.00,,,0.00,WUHU216HW,2013-02-09 09:20:00,
2013-02-09 04:25:00,26.6,24.7,29.76,NE,45,3.8,8.1,92,0.00,,,0.00,WUHU216HW,2013-02-09 09:25:00,
2013-02-09 04:30:00,26.6,24.7,29.76,WNW,293,4.5,8.5,92,0.00,,,0.00,WUHU216HW,2013-02-09 09:30:00,
2013-02-09 04:35:00,26.6,24.7,29.77,NNW,338,6.5,8.5,92,0.00,,,0.00,WUHU216HW,2013-02-09 09:35:00,
2013-02-09 04:40:00,26.5,24.5,29.77,WNW,293,5.4,8.5,92,0.00,,,0.00,WUHU216HW,2013-02-09 09:40:00,
2013-02-09 04:45:00,26.5,24.5,29.77,NNE,23,1.6,7.6,92,0.00,,,0.00,WUHU216HW,2013-02-09 09:45:00,
2013-02-09 04:50:00,26.5,24.5,29.77,West,270,3.1,7.6,92,0.00,,,0.00,WUHU216HW,2013-02-09 09:50:00,
2013-02-09 04:55:00,26.5,24.5,29.77,North,0,6.9,6.9,92,0.00,,,0.00,WUHU216HW,2013-02-09 09:55:00,
2013-02-09 05:00:00,26.6,24.7,29.77,NW,315,2.0,6.9,92,0.00,,,0.00,WUHU216HW,2013-02-09 10:00:00,
2013-02-09 05:05:00,26.6,24.7,29.77,NNW,338,1.3,6.9,92,0.00,,,0.00,WUHU216HW,2013-02-09 10:05:00,
2013-02-09 05:10:00,26.6,24.7,29.77,NNW,338,0.4,7.2,92,0.00,,,0.00,WUHU216HW,2013-02-09 10:10:00,
2013-02-09 05:15:00,26.6,24.4,29.77,West,270,1.3,7.2,91,0.00,,,0.00,WUHU216HW,2013-02-09 10:15:00,
2013-02-09 05:20:00,26.8,24.6,29.77,NW,315,4.7,4.7,91,0.00,,,0.00,WUHU216HW,2013-02-09 10:20:00,
2013-02-09 05:25:00,26.8,24.6,29.77,NW,315,1.3,4.7,91,0.00,,,0.00,WUHU216HW,2013-02-09 10:25:00,
2013-02-09 05:30:00,27.0,24.8,29.77,West,270,1.1,3.8,91,0.00,,,0.00,WUHU216HW,2013-02-09 10:30:00,
2013-02-09 05:35:00,27.0,24.8,29.77,NNW,338,1.6,6.7,91,0.00,,,0.00,WUHU216HW,2013-02-09 10:35:00,
2013-02-09 05:40:00,27.0,24.8,29.77,SSW,203,2.7,6.7,91,0.00,,,0.00,WUHU216HW,2013-02-09 10:40:00,
2013-02-09 05:45:00,27.0,25.0,29.77,North,0,2.2,6.3,92,0.00,,,0.00,WUHU216HW,2013-02-09 10:45:00,
2013-02-09 05:50:00,27.0,25.0,29.77,NE,45,1.1,6.3,92,0.00,,,0.00,WUHU216HW,2013-02-09 10:50:00,
2013-02-09 05:55:00,27.0,25.0,29.77,NNW,338,1.8,4.3,92,0.00,,,0.00,WUHU216HW,2013-02-09 10:55:00,
2013-02-09 06:00:00,27.2,25.2,29.77,West,270,1.3,4.0,92,0.00,,,0.00,WUHU216HW,2013-02-09 11:00:00,
2013-02-09 06:05:00,27.2,25.2,29.78,NNW,338,2.5,5.1,92,0.00,,,0.00,WUHU216HW,2013-02-09 11:05:00,
2013-02-09 06:10:00,27.4,25.4,29.78,North,0,2.7,5.1,92,0.00,,,0.00,WUHU216HW,2013-02-09 11:10:00,
2013-02-09 06:15:00,27.4,25.4,29.78,NNW,338,1.8,4.5,92,0.00,,,0.00,WUHU216HW,2013-02-09 11:15:00,
2013-02-09 06:20:00,27.5,25.3,29.78,WNW,293,2.9,4.5,91,0.00,,,0.00,WUHU216HW,2013-02-09 11:20:00,
2013-02-09 06:25:00,27.5,25.3,29.79,WNW,293,3.1,6.5,91,0.00,,,0.00,WUHU216HW,2013-02-09 11:25:00,
2013-02-09 06:30:00,27.7,25.5,29.79,NW,315,1.8,6.5,91,0.00,,,0.00,WUHU216HW,2013-02-09 11:30:00,
2013-02-09 06:35:00,27.7,25.5,29.79,NNE,23,2.5,5.1,91,0.00,,,0.00,WUHU216HW,2013-02-09 11:35:00,
2013-02-09 06:40:00,27.7,25.5,29.79,SSW,203,3.8,5.1,91,0.00,,,0.00,WUHU216HW,2013-02-09 11:40:00,
2013-02-09 06:45:00,27.7,25.5,29.80,SSW,203,2.2,5.6,91,0.00,,,0.00,WUHU216HW,2013-02-09 11:45:00,
2013-02-09 06:50:00,27.7,25.5,29.80,NW,315,5.4,6.9,91,0.00,,,0.00,WUHU216HW,2013-02-09 11:50:00,
2013-02-09 06:55:00,27.9,25.7,29.80,West,270,3.4,6.9,91,0.00,,,0.00,WUHU216HW,2013-02-09 11:55:00,
2013-02-09 07:00:00,27.9,25.7,29.80,NW,315,3.4,5.4,91,0.00,,,0.00,WUHU216HW,2013-02-09 12:00:00,
2013-02-09 07:05:00,28.1,25.8,29.81,West,270,3.4,6.0,91,0.00,,,0.00,WUHU216HW,2013-02-09 12:05:00,
2013-02-09 07:10:00,28.1,25.6,29.81,NNW,338,3.8,6.0,90,0.00,,,0.00,WUHU216HW,2013-02-09 12:10:00,
2013-02-09 07:15:00,28.1,25.6,29.81,WNW,293,2.9,4.7,90,0.00,,,0.00,WUHU216HW,2013-02-09 12:15:00,
2013-02-09 07:20:00,28.1,25.6,29.82,NNW,338,6.0,7.6,90,0.00,,,0.00,WUHU216HW,2013-02-09 12:20:00,
2013-02-09 07:25:00,28.3,25.5,29.82,West,270,4.3,8.1,89,0.00,,,0.00,WUHU216HW,2013-02-09 12:25:00,
2013-02-09 07:30:00,28.3,25.5,29.82,North,0,2.5,8.1,89,0.00,,,0.00,WUHU216HW,2013-02-09 12:30:00,
2013-02-09 07:35:00,28.3,25.5,29.82,NNW,338,5.4,9.2,89,0.00,,,0.00,WUHU216HW,2013-02-09 12:35:00,
2013-02-09 07:40:00,28.4,25.7,29.82,WSW,248,1.8,9.2,89,0.00,,,0.00,WUHU216HW,2013-02-09 12:40:00,
2013-02-09 07:45:00,28.4,25.7,29.82,WSW,248,6.3,8.3,89,0.00,,,0.00,WUHU216HW,2013-02-09 12:45:00,
2013-02-09 07:50:00,28.4,25.4,29.83,SSW,203,2.9,6.9,88,0.00,,,0.00,WUHU216HW,2013-02-09 12:50:00,
2013-02-09 07:55:00,28.4,25.4,29.83,WNW,293,2.9,5.4,88,0.00,,,0.00,WUHU216HW,2013-02-09 12:55:00,
2013-02-09 08:00:00,28.4,25.4,29.84,NW,315,4.3,5.4,88,0.00,,,0.00,WUHU216HW,2013-02-09 13:00:00,
2013-02-09 08:05:00,28.4,25.4,29.84,West,270,4.0,7.8,88,0.00,,,0.00,WUHU216HW,2013-02-09 13:05:00,
2013-02-09 08:10:00,28.6,25.6,29.84,North,0,2.7,7.8,88,0.00,,,0.00,WUHU216HW,2013-02-09 13:10:00,
2013-02-09 08:15:00,28.8,25.8,29.84,WNW,293,4.7,6.3,88,0.00,,,0.00,WUHU216HW,2013-02-09 13:15:00,
2013-02-09 08:20:00,28.8,25.8,29.84,NNW,338,2.5,4.9,88,0.00,,,0.00,WUHU216HW,2013-02-09 13:20:00,
2013-02-09 08:25:00,29.0,25.9,29.85,North,0,4.3,8.5,88,0.00,,,0.00,WUHU216HW,2013-02-09 13:25:00,
2013-02-09 08:30:00,29.0,25.9,29.85,NNW,338,2.9,8.5,88,0.00,,,0.00,WUHU216HW,2013-02-09 13:30:00,
2013-02-09 08:35:00,29.0,25.6,29.85,NW,315,3.4,5.6,87,0.00,,,0.00,WUHU216HW,2013-02-09 13:35:00,
2013-02-09 08:40:00,29.0,25.6,29.86,WSW,248,3.4,8.3,87,0.00,,,0.00,WUHU216HW,2013-02-09 13:40:00,
2013-02-09 08:45:00,29.0,25.3,29.86,NNW,338,4.3,8.3,86,0.00,,,0.00,WUHU216HW,2013-02-09 13:45:00,
2013-02-09 08:50:00,28.8,25.1,29.86,North,0,4.3,6.9,86,0.00,,,0.00,WUHU216HW,2013-02-09 13:50:00,
2013-02-09 08:55:00,28.6,24.9,29.87,North,0,4.0,7.8,86,0.00,,,0.00,WUHU216HW,2013-02-09 13:55:00,
2013-02-09 09:00:00,28.6,24.9,29.87,West,270,4.0,8.1,86,0.00,,,0.00,WUHU216HW,2013-02-09 14:00:00,
2013-02-09 09:05:00,28.6,24.9,29.87,WSW,248,5.6,8.1,86,0.00,,,0.00,WUHU216HW,2013-02-09 14:05:00,
2013-02-09 09:10:00,28.6,24.7,29.88,NW,315,5.1,6.9,85,0.00,,,0.00,WUHU216HW,2013-02-09 14:10:00,
2013-02-09 09:15:00,28.6,24.7,29.88,NNW,338,3.1,7.8,85,0.00,,,0.00,WUHU216HW,2013-02-09 14:15:00,
2013-02-09 09:20:00,28.6,24.7,29.89,WNW,293,2.5,7.8,85,0.00,,,0.00,WUHU216HW,2013-02-09 14:20:00,
2013-02-09 09:25:00,28.8,25.1,29.89,NW,315,3.1,5.6,86,0.00,,,0.00,WUHU216HW,2013-02-09 14:25:00,
2013-02-09 09:30:00,28.8,24.8,29.89,NW,315,4.7,5.4,85,0.00,,,0.00,WUHU216HW,2013-02-09 14:30:00,
2013-02-09 09:35:00,28.6,24.7,29.89,NNW,338,0.9,5.4,85,0.00,,,0.00,WUHU216HW,2013-02-09 14:35:00,
2013-02-09 09:40:00,28.6,24.7,29.89,WSW,248,6.3,10.5,85,0.00,,,0.00,WUHU216HW,2013-02-09 14:40:00,
2013-02-09 09:45:00,28.4,24.2,29.90,NNW,338,4.3,10.5,84,0.00,,,0.00,WUHU216HW,2013-02-09 14:45:00,
2013-02-09 09:50:00,28.4,24.0,29.90,NW,315,7.6,7.6,83,0.00,,,0.00,WUHU216HW,2013-02-09 14:50:00,
2013-02-09 09:55:00,28.4,24.2,29.90,North,0,3.4,7.6,84,0.00,,,0.00,WUHU216HW,2013-02-09 14:55:00,
2013-02-09 10:00:00,28.4,24.0,29.90,NW,315,1.3,7.6,83,0.00,,,0.00,WUHU216HW,2013-02-09 15:00:00,
2013-02-09 10:05:00,28.4,24.0,29.91,NNW,338,6.3,7.4,83,0.00,,,0.00,WUHU216HW,2013-02-09 15:05:00,
2013-02-09 10:10:00,28.3,23.8,29.91,NW,315,2.5,6.9,83,0.00,,,0.00,WUHU216HW,2013-02-09 15:10:00,
2013-02-09 10:15:00,28.4,24.0,29.91,NNW,338,2.9,6.9,83,0.00,,,0.00,WUHU216HW,2013-02-09 15:15:00,
2013-02-09 10:20:00,28.4,23.3,29.91,NW,315,4.7,5.8,81,0.00,,,0.00,WUHU216HW,2013-02-09 15:20:00,
2013-02-09 10:25:00,28.3,23.4,29.92,NW,315,3.4,8.1,82,0.00,,,0.00,WUHU216HW,2013-02-09 15:25:00,
2013-02-09 10:30:00,28.3,23.4,29.91,WNW,293,1.8,8.1,82,0.00,,,0.00,WUHU216HW,2013-02-09 15:30:00,
2013-02-09 10:35:00,28.3,23.4,29.92,WNW,293,3.1,6.9,82,0.00,,,0.00,WUHU216HW,2013-02-09 15:35:00,
2013-02-09 10:40:00,28.3,23.4,29.92,SW,225,1.3,8.5,82,0.00,,,0.00,WUHU216HW,2013-02-09 15:40:00,
2013-02-09 10:45:00,28.4,23.3,29.93,North,0,3.4,8.9,81,0.00,,,0.00,WUHU216HW,2013-02-09 15:45:00,
2013-02-09 10:50:00,28.4,23.3,29.93,WNW,293,3.1,8.9,81,0.00,,,0.00,WUHU216HW,2013-02-09 15:50:00,
2013-02-09 10:55:00,28.4,23.0,29.93,NNE,23,5.1,8.5,80,0.00,,,0.00,WUHU216HW,2013-02-09 15:55:00,
2013-02-09 11:00:00,28.4,22.8,29.94,NNW,338,8.1,10.3,79,0.00,,,0.00,WUHU216HW,2013-02-09 16:00:00,
2013-02-09 11:05:00,28.4,22.8,29.94,North,0,3.1,10.3,79,0.00,,,0.00,WUHU216HW,2013-02-09 16:05:00,
2013-02-09 11:10:00,28.4,22.8,29.94,WNW,293,1.3,8.1,79,0.00,,,0.00,WUHU216HW,2013-02-09 16:10:00,
2013-02-09 11:15:00,28.6,23.0,29.94,WNW,293,2.5,10.1,79,0.00,,,0.00,WUHU216HW,2013-02-09 16:15:00,
2013-02-09 11:20:00,28.6,22.3,29.94,North,0,7.6,10.1,77,0.00,,,0.00,WUHU216HW,2013-02-09 16:20:00,
2013-02-09 11:25:00,28.6,22.6,29.94,WNW,293,3.1,9.2,78,0.00,,,0.00,WUHU216HW,2013-02-09 16:25:00,
2013-02-09 11:30:00,28.6,22.3,29.94,WNW,293,4.5,7.6,77,0.00,,,0.00,WUHU216HW,2013-02-09 16:30:00,
2013-02-09 11:35:00,28.6,22.6,29.94,WSW,248,6.3,8.1,78,0.00,,,0.00,WUHU216HW,2013-02-09 16:35:00,
2013-02-09 11:40:00,28.6,22.3,29.94,SW,225,5.4,8.1,77,0.00,,,0.00,WUHU216HW,2013-02-09 16:40:00,
2013-02-09 11:45:00,29.0,22.7,29.95,ENE,68,3.4,7.6,77,0.00,,,0.00,WUHU216HW,2013-02-09 16:45:00,
2013-02-09 11:50:00,29.3,23.0,29.94,WSW,248,4.9,6.9,77,0.00,,,0.00,WUHU216HW,2013-02-09 16:50:00,
2013-02-09 11:55:00,29.9,23.2,29.94,NNW,338,9.2,9.2,76,0.00,,,0.00,WUHU216HW,2013-02-09 16:55:00,
2013-02-09 12:00:00,30.2,23.6,29.94,WNW,293,2.5,9.2,76,0.00,,,0.00,WUHU216HW,2013-02-09 17:00:00,
2013-02-09 12:05:00,30.8,23.4,29.94,NNW,338,3.4,8.5,74,0.00,,,0.00,WUHU216HW,2013-02-09 17:05:00,
2013-02-09 12:10:00,31.0,23.3,29.94,North,0,5.4,7.2,73,0.00,,,0.00,WUHU216HW,2013-02-09 17:10:00,
2013-02-09 12:15:00,31.3,23.7,29.94,NNW,338,4.7,8.9,73,0.00,,,0.00,WUHU216HW,2013-02-09 17:15:00,
2013-02-09 12:20:00,31.7,24.0,29.94,North,0,3.8,8.9,73,0.00,,,0.00,WUHU216HW,2013-02-09 17:20:00,
2013-02-09 12:25:00,32.2,24.2,29.95,NW,315,3.1,9.2,72,0.00,,,0.00,WUHU216HW,2013-02-09 17:25:00,
2013-02-09 12:30:00,32.6,23.9,29.95,WNW,293,3.6,9.2,70,0.00,,,0.00,WUHU216HW,2013-02-09 17:30:00,
2013-02-09 12:35:00,32.6,23.5,29.95,West,270,4.5,12.1,69,0.00,,,0.00,WUHU216HW,2013-02-09 17:35:00,
2013-02-09 12:40:00,32.8,23.7,29.95,North,0,8.1,12.1,69,0.00,,,0.00,WUHU216HW,2013-02-09 17:40:00,
2013-02-09 12:45:00,32.8,22.6,29.95,NNW,338,5.4,9.6,66,0.00,,,0.00,WUHU216HW,2013-02-09 17:45:00,
2013-02-09 12:50:00,32.8,22.6,29.95,SSW,203,3.6,9.6,66,0.00,,,0.00,WUHU216HW,2013-02-09 17:50:00,
2013-02-09 12:55:00,32.6,22.4,29.95,NW,315,4.0,11.4,66,0.00,,,0.00,WUHU216HW,2013-02-09 17:55:00,
2013-02-09 13:00:00,32.6,22.4,29.95,NW,315,6.9,11.4,66,0.00,,,0.00,WUHU216HW,2013-02-09 18:00:00,
2013-02-09 13:05:00,32.8,23.0,29.95,NNE,23,0.9,10.5,67,0.00,,,0.00,WUHU216HW,2013-02-09 18:05:00,
2013-02-09 13:10:00,32.6,22.4,29.95,WSW,248,6.3,8.1,66,0.00,,,0.00,WUHU216HW,2013-02-09 18:10:00,
2013-02-09 13:15:00,32.4,22.0,29.95,NNW,338,5.8,8.1,65,0.00,,,0.00,WUHU216HW,2013-02-09 18:15:00,
2013-02-09 13:20:00,32.4,21.6,29.95,North,0,8.1,9.6,64,0.00,,,0.00,WUHU216HW,2013-02-09 18:20:00,
2013-02-09 13:25:00,32.0,20.9,29.96,SE,135,2.2,11.6,63,0.00,,,0.00,WUHU216HW,2013-02-09 18:25:00,
2013-02-09 13:30:00,32.0,21.2,29.96,WNW,293,6.7,11.6,64,0.00,,,0.00,WUHU216HW,2013-02-09 18:30:00,
2013-02-09 13:35:00,32.0,21.2,29.97,NW,315,6.9,9.2,64,0.00,,,0.00,WUHU216HW,2013-02-09 18:35:00,
2013-02-09 13:40:00,32.0,20.5,29.97,North,0,8.5,9.2,62,0.00,,,0.00,WUHU216HW,2013-02-09 18:40:00,
2013-02-09 13:45:00,32.0,20.2,29.97,North,0,5.8,9.2,61,0.00,,,0.00,WUHU216HW,2013-02-09 18:45:00,
2013-02-09 13:50:00,31.9,19.6,29.98,NNW,338,6.7,9.2,60,0.00,,,0.00,WUHU216HW,2013-02-09 18:50:00,
2013-02-09 13:55:00,32.0,20.5,29.98,SW,225,6.9,8.5,62,0.00,,,0.00,WUHU216HW,2013-02-09 18:55:00,
2013-02-09 14:00:00,32.0,20.2,29.98,NW,315,4.3,8.3,61,0.00,,,0.00,WUHU216HW,2013-02-09 19:00:00,
2013-02-09 14:05:00,32.0,19.8,29.98,NNE,23,3.4,8.5,60,0.00,,,0.00,WUHU216HW,2013-02-09 19:05:00,
2013-02-09 14:10:00,31.9,19.6,29.99,WNW,293,3.6,8.9,60,0.00,,,0.00,WUHU216HW,2013-02-09 19:10:00,
2013-02-09 14:15:00,31.9,18.7,29.99,NNW,338,5.4,8.9,58,0.00,,,0.00,WUHU216HW,2013-02-09 19:15:00,
2013-02-09 14:20:00,32.0,20.2,29.99,SW,225,3.1,8.9,61,0.01,,,0.01,WUHU216HW,2013-02-09 19:20:00,
2013-02-09 14:25:00,32.0,19.8,30.00,North,0,4.3,6.9,60,0.01,,,0.01,WUHU216HW,2013-02-09 19:25:00,
2013-02-09 14:30:00,32.0,18.1,30.00,NW,315,9.2,9.8,56,0.01,,,0.01,WUHU216HW,2013-02-09 19:30:00,
2013-02-09 14:35:00,32.0,18.9,30.00,NW,315,2.7,9.8,58,0.01,,,0.01,WUHU216HW,2013-02-09 19:35:00,
2013-02-09 14:40:00,32.2,19.5,30.00,WSW,248,1.8,9.6,59,0.01,,,0.01,WUHU216HW,2013-02-09 19:40:00,
2013-02-09 14:45:00,32.4,20.2,30.00,NNW,338,1.3,6.9,60,0.01,,,0.01,WUHU216HW,2013-02-09 19:45:00,
2013-02-09 14:50:00,32.4,20.2,30.00,WNW,293,4.0,6.3,60,0.01,,,0.01,WUHU216HW,2013-02-09 19:50:00,
2013-02-09 14:55:00,32.4,19.3,30.00,NW,315,2.2,6.5,58,0.01,,,0.01,WUHU216HW,2013-02-09 19:55:00,
2013-02-09 15:00:00,32.4,18.8,30.01,NW,315,3.6,8.5,57,0.01,,,0.01,WUHU216HW,2013-02-09 20:00:00,
2013-02-09 15:05:00,32.4,18.8,30.01,SSW,203,4.0,8.5,57,0.01,,,0.01,WUHU216HW,2013-02-09 20:05:00,
2013-02-09 15:10:00,32.4,18.8,30.01,NW,315,4.7,8.5,57,0.01,,,0.01,WUHU216HW,2013-02-09 20:10:00,
2013-02-09 15:15:00,32.4,18.8,30.01,NNW,338,1.8,8.5,57,0.01,,,0.01,WUHU216HW,2013-02-09 20:15:00,
2013-02-09 15:20:00,32.4,19.7,30.01,NNE,23,2.7,8.3,59,0.00,,,0.01,WUHU216HW,2013-02-09 20:20:00,
2013-02-09 15:25:00,32.2,18.6,30.01,WNW,293,3.1,8.5,57,0.00,,,0.01,WUHU216HW,2013-02-09 20:25:00,
2013-02-09 15:30:00,32.2,18.3,30.01,North,0,6.9,8.5,56,0.00,,,0.01,WUHU216HW,2013-02-09 20:30:00,
2013-02-09 15:35:00,32.0,18.1,30.01,SE,135,4.3,8.1,56,0.00,,,0.01,WUHU216HW,2013-02-09 20:35:00,
2013-02-09 15:40:00,32.2,18.6,30.02,NW,315,2.9,8.1,57,0.00,,,0.01,WUHU216HW,2013-02-09 20:40:00,
2013-02-09 15:45:00,32.0,18.1,30.02,NNW,338,4.0,6.9,56,0.00,,,0.01,WUHU216HW,2013-02-09 20:45:00,
2013-02-09 15:50:00,32.0,18.9,30.03,North,0,1.3,6.9,58,0.00,,,0.01,WUHU216HW,2013-02-09 20:50:00,
2013-02-09 15:55:00,32.0,18.1,30.03,NW,315,4.7,5.4,56,0.00,,,0.01,WUHU216HW,2013-02-09 20:55:00,
2013-02-09 16:00:00,32.0,18.9,30.03,NNW,338,0.4,7.4,58,0.00,,,0.01,WUHU216HW,2013-02-09 21:00:00,
2013-02-09 16:05:00,31.9,18.7,30.04,WNW,293,2.9,7.4,58,0.00,,,0.01,WUHU216HW,2013-02-09 21:05:00,
2013-02-09 16:10:00,31.9,17.9,30.04,WNW,293,2.5,5.4,56,0.00,,,0.01,WUHU216HW,2013-02-09 21:10:00,
2013-02-09 16:15:00,31.7,19.0,30.04,NW,315,2.5,5.4,59,0.00,,,0.01,WUHU216HW,2013-02-09 21:15:00,
2013-02-09 16:20:00,31.5,16.8,30.04,NW,315,3.8,8.1,54,0.00,,,0.01,WUHU216HW,2013-02-09 21:20:00,
2013-02-09 16:25:00,31.3,17.4,30.05,West,270,1.6,8.1,56,0.00,,,0.01,WUHU216HW,2013-02-09 21:25:00,
2013-02-09 16:30:00,31.3,16.6,30.05,SSW,203,4.7,6.9,54,0.00,,,0.01,WUHU216HW,2013-02-09 21:30:00,
2013-02-09 16:35:00,31.1,16.8,30.05,NW,315,1.6,5.6,55,0.00,,,0.01,WUHU216HW,2013-02-09 21:35:00,
2013-02-09 16:40:00,31.0,17.0,30.06,SW,225,4.0,6.9,56,0.00,,,0.01,WUHU216HW,2013-02-09 21:40:00,
2013-02-09 16:45:00,31.0,16.7,30.06,NNW,338,3.4,6.9,55,0.00,,,0.01,WUHU216HW,2013-02-09 21:45:00,
2013-02-09 16:50:00,30.8,16.8,30.06,NNW,338,4.9,6.7,56,0.00,,,0.01,WUHU216HW,2013-02-09 21:50:00,
2013-02-09 16:55:00,30.6,16.3,30.07,East,90,4.0,6.9,55,0.00,,,0.01,WUHU216HW,2013-02-09 21:55:00,
2013-02-09 17:00:00,30.4,15.7,30.08,NNW,338,2.9,6.9,54,0.00,,,0.01,WUHU216HW,2013-02-09 22:00:00,
2013-02-09 17:05:00,30.2,15.9,30.08,NW,315,3.4,6.3,55,0.00,,,0.01,WUHU216HW,2013-02-09 22:05:00,
2013-02-09 17:10:00,30.2,15.5,30.09,NNW,338,5.6,6.5,54,0.00,,,0.01,WUHU216HW,2013-02-09 22:10:00,
2013-02-09 17:15:00,29.9,15.6,30.09,WSW,248,0.9,6.5,55,0.00,,,0.01,WUHU216HW,2013-02-09 22:15:00,
2013-02-09 17:20:00,29.9,16.0,30.10,East,90,3.4,5.6,56,0.00,,,0.01,WUHU216HW,2013-02-09 22:20:00,
2013-02-09 17:25:00,29.7,15.5,30.10,NW,315,4.3,4.5,55,0.00,,,0.01,WUHU216HW,2013-02-09 22:25:00,
2013-02-09 17:30:00,29.5,15.3,30.10,North,0,2.5,4.5,55,0.00,,,0.01,WUHU216HW,2013-02-09 22:30:00,
2013-02-09 17:35:00,29.5,15.7,30.10,North,0,0.4,4.3,56,0.00,,,0.01,WUHU216HW,2013-02-09 22:35:00,
2013-02-09 17:40:00,29.3,15.6,30.11,NNW,338,1.1,4.0,56,0.00,,,0.01,WUHU216HW,2013-02-09 22:40:00,
2013-02-09 17:45:00,29.2,14.1,30.11,NNW,338,5.4,7.8,53,0.00,,,0.01,WUHU216HW,2013-02-09 22:45:00,
2013-02-09 17:50:00,29.2,15.4,30.11,NW,315,1.8,7.8,56,0.00,,,0.01,WUHU216HW,2013-02-09 22:50:00,
2013-02-09 17:55:00,29.2,15.4,30.11,WSW,248,5.6,6.9,56,0.00,,,0.01,WUHU216HW,2013-02-09 22:55:00,
2013-02-09 18:00:00,29.0,15.2,30.12,NW,315,0.9,6.3,56,0.00,,,0.01,WUHU216HW,2013-02-09 23:00:00,
2013-02-09 18:05:00,28.8,15.0,30.12,NW,315,2.2,8.9,56,0.00,,,0.01,WUHU216HW,2013-02-09 23:05:00,
2013-02-09 18:10:00,28.8,15.5,30.12,NW,315,3.4,8.9,57,0.00,,,0.01,WUHU216HW,2013-02-09 23:10:00,
2013-02-09 18:15:00,28.6,14.5,30.13,West,270,3.4,4.5,55,0.00,,,0.01,WUHU216HW,2013-02-09 23:15:00,
2013-02-09 18:20:00,28.6,13.7,30.13,WSW,248,3.6,7.2,53,0.00,,,0.01,WUHU216HW,2013-02-09 23:20:00,
2013-02-09 18:25:00,28.4,14.8,30.14,NW,315,2.5,7.2,56,0.00,,,0.01,WUHU216HW,2013-02-09 23:25:00,
2013-02-09 18:30:00,28.4,15.1,30.14,WSW,248,0.2,4.3,57,0.00,,,0.01,WUHU216HW,2013-02-09 23:30:00,
2013-02-09 18:35:00,28.4,14.8,30.14,North,0,0.7,4.0,56,0.00,,,0.01,WUHU216HW,2013-02-09 23:35:00,
2013-02-09 18:40:00,28.3,14.9,30.15,WNW,293,0.9,4.0,57,0.00,,,0.01,WUHU216HW,2013-02-09 23:40:00,
2013-02-09 18:45:00,28.1,14.8,30.15,NNE,23,0.9,2.7,57,0.00,,,0.01,WUHU216HW,2013-02-09 23:45:00,
2013-02-09 18:50:00,27.9,14.2,30.15,West,270,1.3,4.9,56,0.00,,,0.01,WUHU216HW,2013-02-09 23:50:00,
2013-02-09 18:55:00,27.7,14.4,30.16,NNE,23,2.0,4.9,57,0.00,,,0.01,WUHU216HW,2013-02-09 23:55:00,
2013-02-09 19:00:00,27.7,14.4,30.16,West,270,2.7,4.7,57,0.00,,,0.01,WUHU216HW,2013-02-10 00:00:00,
2013-02-09 19:05:00,27.7,14.4,30.16,SSW,203,1.3,7.2,57,0.00,,,0.01,WUHU216HW,2013-02-10 00:05:00,
2013-02-09 19:10:00,27.7,13.6,30.16,NNW,338,1.1,7.4,55,0.00,,,0.01,WUHU216HW,2013-02-10 00:10:00,
2013-02-09 19:15:00,27.7,14.1,30.17,NNW,338,0.7,7.4,56,0.00,,,0.01,WUHU216HW,2013-02-10 00:15:00,
2013-02-09 19:20:00,27.5,13.4,30.17,NW,315,2.7,4.9,55,0.00,,,0.01,WUHU216HW,2013-02-10 00:20:00,
2013-02-09 19:25:00,27.5,13.9,30.17,NNW,338,1.3,4.9,56,0.00,,,0.01,WUHU216HW,2013-02-10 00:25:00,
2013-02-09 19:30:00,27.2,13.5,30.17,NW,315,2.0,4.9,56,0.00,,,0.01,WUHU216HW,2013-02-10 00:30:00,
2013-02-09 19:35:00,27.2,13.5,30.17,WNW,293,4.0,4.9,56,0.00,,,0.01,WUHU216HW,2013-02-10 00:35:00,
2013-02-09 19:40:00,27.0,13.3,30.17,NW,315,4.0,5.4,56,0.00,,,0.01,WUHU216HW,2013-02-10 00:40:00,
2013-02-09 19:45:00,27.0,13.3,30.17,NNW,338,0.4,5.4,56,0.00,,,0.01,WUHU216HW,2013-02-10 00:45:00,
2013-02-09 19:50:00,27.0,13.3,30.18,NW,315,0.9,6.3,56,0.00,,,0.01,WUHU216HW,2013-02-10 00:50:00,
2013-02-09 19:55:00,26.8,13.5,30.18,North,0,4.9,6.3,57,0.00,,,0.01,WUHU216HW,2013-02-10 00:55:00,
2013-02-09 20:00:00,26.6,13.3,30.18,East,90,1.1,4.9,57,0.00,,,0.01,WUHU216HW,2013-02-10 01:00:00,
2013-02-09 20:05:00,26.6,13.3,30.19,WNW,293,0.9,3.6,57,0.00,,,0.01,WUHU216HW,2013-02-10 01:05:00,
2013-02-09 20:10:00,26.5,13.6,30.19,North,0,2.9,3.4,58,0.00,,,0.01,WUHU216HW,2013-02-10 01:10:00,
2013-02-09 20:15:00,26.3,13.4,30.19,NW,315,2.5,4.7,58,0.00,,,0.01,WUHU216HW,2013-02-10 01:15:00,
2013-02-09 20:20:00,26.3,13.4,30.20,NNW,338,2.7,4.7,58,0.00,,,0.01,WUHU216HW,2013-02-10 01:20:00,
2013-02-09 20:25:00,26.3,13.4,30.21,NW,315,0.4,3.4,58,0.00,,,0.01,WUHU216HW,2013-02-10 01:25:00,
2013-02-09 20:30:00,26.1,13.2,30.21,NNW,338,1.3,2.9,58,0.00,,,0.01,WUHU216HW,2013-02-10 01:30:00,
2013-02-09 20:35:00,25.9,13.5,30.21,West,270,2.2,2.7,59,0.00,,,0.01,WUHU216HW,2013-02-10 01:35:00,
2013-02-09 20:40:00,25.9,12.7,30.21,NNW,338,4.7,4.7,57,0.00,,,0.01,WUHU216HW,2013-02-10 01:40:00,
2013-02-09 20:45:00,25.9,13.2,30.22,West,270,1.6,4.7,58,0.00,,,0.01,WUHU216HW,2013-02-10 01:45:00,
2013-02-09 20:50:00,25.7,13.0,30.22,NW,315,1.3,5.6,58,0.00,,,0.01,WUHU216HW,2013-02-10 01:50:00,
2013-02-09 20:55:00,25.6,12.8,30.22,NW,315,1.6,5.6,58,0.00,,,0.01,WUHU216HW,2013-02-10 01:55:00,
2013-02-09 21:00:00,25.6,13.2,30.23,NW,315,1.8,3.8,59,0.00,,,0.01,WUHU216HW,2013-02-10 02:00:00,
2013-02-09 21:05:00,25.6,13.2,30.23,North,0,1.8,3.8,59,0.00,,,0.01,WUHU216HW,2013-02-10 02:05:00,
2013-02-09 21:10:00,25.4,13.1,30.24,North,0,0.4,3.4,59,0.00,,,0.01,WUHU216HW,2013-02-10 02:10:00,
2013-02-09 21:15:00,25.2,12.9,30.24,NW,315,1.8,2.5,59,0.00,,,0.01,WUHU216HW,2013-02-10 02:15:00,
2013-02-09 21:20:00,25.2,12.9,30.24,NW,315,2.5,2.9,59,0.00,,,0.01,WUHU216HW,2013-02-10 02:20:00,
2013-02-09 21:25:00,25.0,11.9,30.24,NW,315,4.0,4.0,57,0.00,,,0.01,WUHU216HW,2013-02-10 02:25:00,
2013-02-09 21:30:00,25.0,12.3,30.25,NW,315,3.8,4.0,58,0.00,,,0.01,WUHU216HW,2013-02-10 02:30:00,
2013-02-09 21:35:00,24.8,12.2,30.25,NNW,338,0.4,4.0,58,0.00,,,0.01,WUHU216HW,2013-02-10 02:35:00,
2013-02-09 21:40:00,24.8,11.7,30.25,NW,315,5.6,6.3,57,0.00,,,0.01,WUHU216HW,2013-02-10 02:40:00,
2013-02-09 21:45:00,24.8,12.2,30.26,NW,315,1.3,6.3,58,0.00,,,0.01,WUHU216HW,2013-02-10 02:45:00,
2013-02-09 21:50:00,24.8,12.2,30.26,NNW,338,2.5,5.6,58,0.00,,,0.01,WUHU216HW,2013-02-10 02:50:00,
2013-02-09 21:55:00,24.8,12.2,30.26,NW,315,2.0,4.5,58,0.00,,,0.01,WUHU216HW,2013-02-10 02:55:00,
2013-02-09 22:00:00,24.7,12.3,30.26,WNW,293,0.4,4.5,59,0.00,,,0.01,WUHU216HW,2013-02-10 03:00:00,
2013-02-09 22:05:00,24.5,12.2,30.26,NW,315,1.1,3.1,59,0.00,,,0.01,WUHU216HW,2013-02-10 03:05:00,
2013-02-09 22:10:00,24.5,12.2,30.26,South,180,0.7,3.1,59,0.00,,,0.01,WUHU216HW,2013-02-10 03:10:00,
2013-02-09 22:15:00,24.3,12.0,30.26,NNE,23,3.4,4.3,59,0.00,,,0.01,WUHU216HW,2013-02-10 03:15:00,
2013-02-09 22:20:00,24.1,11.8,30.26,NNW,338,2.0,4.3,59,0.00,,,0.01,WUHU216HW,2013-02-10 03:20:00,
2013-02-09 22:25:00,24.1,11.8,30.27,North,0,1.8,3.4,59,0.00,,,0.01,WUHU216HW,2013-02-10 03:25:00,
2013-02-09 22:30:00,24.1,12.2,30.27,WNW,293,1.6,2.5,60,0.00,,,0.01,WUHU216HW,2013-02-10 03:30:00,
2013-02-09 22:35:00,23.9,12.1,30.27,WNW,293,3.4,3.4,60,0.00,,,0.01,WUHU216HW,2013-02-10 03:35:00,
2013-02-09 22:40:00,23.8,11.9,30.27,North,0,2.7,3.4,60,0.00,,,0.01,WUHU216HW,2013-02-10 03:40:00,
2013-02-09 22:45:00,23.8,11.9,30.27,NNW,338,0.7,4.0,60,0.00,,,0.01,WUHU216HW,2013-02-10 03:45:00,
2013-02-09 22:50:00,23.6,11.4,30.27,West,270,0.4,4.0,59,0.00,,,0.01,WUHU216HW,2013-02-10 03:50:00,
2013-02-09 22:55:00,23.6,11.7,30.27,NNW,338,0.4,3.8,60,0.00,,,0.01,WUHU216HW,2013-02-10 03:55:00,
2013-02-09 23:00:00,23.6,11.4,30.27,North,0,2.5,4.0,59,0.00,,,0.01,WUHU216HW,2013-02-10 04:00:00,
2013-02-09 23:05:00,23.4,11.5,30.28,North,0,1.8,4.0,60,0.00,,,0.01,WUHU216HW,2013-02-10 04:05:00,
2013-02-09 23:10:00,23.4,11.5,30.28,NNW,338,0.9,2.0,60,0.00,,,0.01,WUHU216HW,2013-02-10 04:10:00,
2013-02-09 23:16:00,23.4,11.5,30.28,NW,315,1.1,4.7,60,0.00,,,0.01,WUHU216HW,2013-02-10 04:16:00,
2013-02-09 23:21:00,23.2,11.3,30.28,WNW,293,2.2,4.7,60,0.00,,,0.01,WUHU216HW,2013-02-10 04:21:00,
2013-02-09 23:26:00,23.2,11.7,30.28,WSW,248,0.7,3.1,61,0.00,,,0.01,WUHU216HW,2013-02-10 04:26:00,
2013-02-09 23:31:00,23.0,11.5,30.28,WNW,293,0.4,4.0,61,0.00,,,0.01,WUHU216HW,2013-02-10 04:31:00,
2013-02-09 23:36:00,22.9,11.0,30.29,WNW,293,1.1,4.0,60,0.00,,,0.01,WUHU216HW,2013-02-10 04:36:00,
2013-02-09 23:41:00,22.9,11.3,30.29,NNW,338,1.1,3.4,61,0.00,,,0.01,WUHU216HW,2013-02-10 04:41:00,
2013-02-09 23:46:00,22.7,11.2,30.29,NW,315,2.0,3.4,61,0.00,,,0.01,WUHU216HW,2013-02-10 04:46:00,
2013-02-09 23:51:00,22.7,11.2,30.29,West,270,1.1,3.4,61,0.00,,,0.01,WUHU216HW,2013-02-10 04:51:00,
2013-02-09 23:56:00,22.7,10.8,30.30,North,0,2.0,3.4,60,0.00,,,0.01,WUHU216HW,2013-02-10 04:56:00,